This is the latest recevied weather packets stored in our database for station/object VK4HIT-13. If no packets are shown the sender has not sent any weather packets the latest 1 day(s).
| Time | Temp. | Humidity | Pressure | Rain* | Wind** | Luminosity | Snow |
|---|---|---|---|---|---|---|---|
| 1778027669 | 23.33° C | 72% | 1017.9 hPa | 0 mm | 1.34 m/s, 16° | - | - |
| 1778027369 | 23.89° C | 71% | 1018 hPa | 0 mm | 1.79 m/s, 21° | - | - |
| 1778027069 | 23.89° C | 71% | 1018 hPa | 0 mm | 1.79 m/s, 24° | - | - |
| 1778026769 | 23.89° C | 72% | 1018 hPa | 0 mm | 1.79 m/s, 29° | - | - |
| 1778026469 | 23.89° C | 72% | 1017.9 hPa | 0 mm | 1.34 m/s, 24° | - | - |
| 1778026169 | 23.33° C | 74% | 1018 hPa | 0 mm | 1.34 m/s, 33° | - | - |
| 1778025869 | 22.78° C | 74% | 1018 hPa | 0 mm | 2.24 m/s, 34° | - | - |
| 1778025569 | 23.33° C | 74% | 1018.1 hPa | 0 mm | 2.24 m/s, 26° | - | - |
| 1778025269 | 22.78° C | 75% | 1018.1 hPa | 0 mm | 1.34 m/s, 33° | - | - |
| 1778024969 | 22.22° C | 78% | 1018 hPa | 0 mm | 0.89 m/s, 36° | - | - |
| 1778024669 | 21.67° C | 81% | 1018.1 hPa | 0 mm | 0.45 m/s, 34° | - | - |
| 1778024369 | 21.67° C | 81% | 1018.2 hPa | 0 mm | 1.34 m/s, 24° | - | - |
| 1778024069 | 21.67° C | 80% | 1018.3 hPa | 0 mm | 1.79 m/s, 30° | - | - |
| 1778023769 | 21.67° C | 80% | 1018.3 hPa | 0 mm | 1.79 m/s, 27° | - | - |
| 1778023469 | 21.67° C | 80% | 1018.3 hPa | 0 mm | 2.24 m/s, 29° | - | - |
| 1778023169 | 21.67° C | 79% | 1018.3 hPa | 0 mm | 2.24 m/s, 33° | - | - |
| 1778022869 | 22.22° C | 78% | 1018.5 hPa | 0 mm | 1.79 m/s, 29° | - | - |
| 1778022569 | 22.22° C | 80% | 1018.4 hPa | 0 mm | 0.89 m/s, 30° | - | - |
| 1778022269 | 21.67° C | 82% | 1018.4 hPa | 0 mm | 0.89 m/s, 33° | - | - |
| 1778021969 | 21.67° C | 81% | 1018.4 hPa | 0 mm | 1.34 m/s, 34° | - | - |
| 1778021669 | 21.67° C | 81% | 1018.4 hPa | 0 mm | 0.89 m/s, 30° | - | - |
| 1778021369 | 21.11° C | 81% | 1018.4 hPa | 0 mm | 0.89 m/s, 35° | - | - |
| 1778021069 | 21.11° C | 81% | 1018.3 hPa | 0 mm | 0.89 m/s, 33° | - | - |
| 1778020769 | 21.11° C | 83% | 1018.3 hPa | 0 mm | 0 m/s | - | - |
| 1778020469 | 20.56° C | 83% | 1018.2 hPa | 0 mm | 0 m/s | - | - |
* Rain latest hour (hover to see other rain measurements)
** Current wind speed in m/s (hover to see current wind gust speed)